Simultaneous Nadir Overpasses (SNOs) Predictions

Prediction of SNOs between GOES-15 and TERRA Satellite Orbit:

Table of predicted SNOs for the next 14.0 days since TLE Epoch: 11/12/2016
Index Date Time (GOES-15) GOES-15 Lat,Lon TERRA Lat,Lon Distance(km) Time Diff (sec)
1 11/13/2016 07:22:13 0.23,-135.18 0.61,-133.38 204.85 80
2 11/13/2016 19:46:09 -0.21,-135.17 0.48,-138.54 382.08 80
3 11/15/2016 19:33:59 -0.21,-135.22 -0.13,-135.59 41.70 80
4 11/17/2016 19:19:10 -0.21,-135.26 -0.77,-132.64 297.79 80
5 11/18/2016 07:43:15 0.19,-135.29 -0.33,-137.84 288.90 80
6 11/20/2016 07:28:26 0.19,-135.32 0.26,-134.88 49.71 80
7 11/22/2016 07:16:19 0.19,-135.36 0.93,-131.95 387.65 80
8 11/22/2016 19:40:15 -0.18,-135.34 0.22,-137.10 200.87 80
9 11/24/2016 19:25:29
